Regional Weather Roundup
Issued by NWS Wilmington, NC

Home | Current Version | Previous Version | Text Only | Print | Product List | Glossary On
Versions: 1 2 3 4 5 6 7 8 9 10 11 12 13 14 15 16 17 18 19 20 21 22 23 24 25 26 27 28 29 30 31 32 33 34 35 36 37 38 39 40 41 42 43 44 45 46 47 48 49 50
804
ASUS42 KILM 180113
RWRILM
RWRILM
REGIONAL HOURLY WEATHER ROUNDUP
NATIONAL WEATHER SERVICE WILMINGTON NC
800 PM EST FRI NOV 17 2017

NOTE: "FAIR" INDICATES FEW OR NO CLOUDS BELOW 12,000 FEET WITH NO
SIGNIFICANT WEATHER AND/OR OBSTRUCTIONS TO VISIBILITY.

...............WFO WILMINGTON COUNTY WARNING AREA...............

......COASTAL NC AND SC COUNTIES......

CITY           SKY/WX    TMP DP  RH WIND       PRES   REMARKS
WILMINGTON     CLEAR     42  39  89 CALM      30.16F
N MYRTLE BEACH CLEAR     42  41  96 CALM      30.16S
MYRTLE BEACH   CLEAR     45  42  89 CALM      30.17F

......INLAND NC AND SC COUNTIES.......

CITY           SKY/WX    TMP DP  RH WIND       PRES   REMARKS
LUMBERTON      CLEAR     37  36  96 CALM      30.16R
ELIZABETHTOWN  NOT AVBL
WHITEVILLE     CLEAR     43  40  88 CALM      30.16S
FLORENCE       CLEAR     44  40  85 CALM      30.16S
DARLINGTON     CLEAR     41  37  86 CALM      30.17R
KINGSTREE      FAIR      41  39  93 CALM      30.16R
HARTSVILLE     FAIR      43  34  70 CALM      30.15S
BENNETTSVILLE  FAIR      39  37  93 CALM      30.16R
CONWAY         FAIR      39  39 100 CALM      30.17S
GEORGETOWN     FAIR      41  41 100 CALM      30.17S
MARION         FAIR      41  37  87 CALM      30.16F

....................REST OF NORTH CAROLINA......................

.........EASTERN NC.........

CITY           SKY/WX    TMP DP  RH WIND       PRES   REMARKS
CAPE HATTERAS  CLEAR     42  38  85 NE3       30.17F
JACKSONVILLE   CLEAR     39  37  92 CALM      30.17F
MOREHEAD CITY  CLEAR     41  39  93 E3        30.18F
KENANSVILLE    CLEAR     36  36 100 CALM      30.17F
NEW BERN       PTCLDY    38  38 100 VRB3      30.18F
ELIZABETH CITY CLEAR     40  38  93 CALM      30.16F

.........CENTRAL NC.........

CITY           SKY/WX    TMP DP  RH WIND       PRES   REMARKS
RALEIGH DURHAM PTCLDY    41  34  76 CALM      30.15S
ROCKY MOUNT    CLEAR     38  37  97 CALM      30.17S
ROANOKE RAPIDS NOT AVBL
FAYETTEVILLE   CLEAR     45  38  76 CALM      30.15F
HOFFMAN        CLEAR     37  35  89 CALM      30.15S

.........WESTERN NC.........

CITY           SKY/WX    TMP DP  RH WIND       PRES   REMARKS
CHARLOTTE      CLEAR     50  32  50 SE3       30.14S
GREENSBORO     PTCLDY    46  31  55 CALM      30.12F
HICKORY        NOT AVBL
BOONE          NOT AVBL
ASHEVILLE      NOT AVBL

.....................REST OF SOUTH CAROLINA.....................

.........EASTERN SC.........

CITY           SKY/WX    TMP DP  RH WIND       PRES   REMARKS
CHARLESTON     CLEAR     51  45  79 SE5       30.15F
BEAUFORT MCAS  CLEAR     54  50  86 NE3       30.15R
HILTON HEAD    CLEAR     57  50  77 NE7       30.15R

.........CENTRAL SC.........

CITY           SKY/WX    TMP DP  RH WIND       PRES   REMARKS
COLUMBIA       CLEAR     45  41  86 CALM      30.14S
ORANGEBURG     CLEAR     45  40  82 CALM      30.15R
SUMTER SHAW    CLEAR     44  37  76 S3        30.13R

.........WESTERN SC.........

CITY           SKY/WX    TMP DP  RH WIND       PRES   REMARKS
GREENVILLE     NOT AVBL
ROCK HILL      CLEAR     42  34  73 SW3       30.14S
ANDERSON       CLEAR     46  41  82 E3        30.13R
CLEMSON        NOT AVBL
GREENWOOD      CLEAR     45  38  76 CALM      30.16R


...................COASTAL AND OFFSHORE REPORTS..................

................LOCAL PIERS AND NC RESERVE................


STATION/POSITION TIME  SKY/WX   TEMP    WIND        PRES    VSBY
                                AIR SEA DIR/SP/G
                 (UTC)          (F)     (DEG/KT/KT) (MB)    (MI)
JOHNY MRCER PIER NOT AVBL
NC RESRV MASNBRO 2345            48     330/  2     1021.0
OCEAN CREST PIER NOT AVBL
SPRINGMAID  PIER NOT AVBL


................COASTAL AND OFFSHORE BUOYS................


STATION/POSITION TIME  SKY/WX   TEMP    WIND        PRES    VSBY
                                AIR SEA DIR/SP/G
                 (UTC)          (F)     (DEG/KT/KT) (MB)    (MI)
DIMNDSHOAL 41025 0050            54 65   10/ 12/ 14 1021.6F
WVE H/P(F/S)=  4/11 SWL H/P/D(F/S/D)=  3/ 70/11

CAPE LOOKOUT     0000            52      10/  5/  5 1022.3R
ONSLOW BAY 41036 NOT AVBL
ONSLOW BAY 41064 0008            56 70   40/  6/ 10 1022.0R
ONSLOW BAY 41159 0100               70                N/A
WVE H/P(F/S)=  3/13 SWL H/P/D(F/S/D)=  2/ 90/13

MASNBO INL 41110 0059               64                N/A
WVE H/P(F/S)=  2/11 SWL H/P/D(F/S/D)=  2/110/11

WILM HARBR 41108 0100               64                N/A
WVE H/P(F/S)=  2/ 9

27SE WRITB 41037 0008            57 68   30/  6/ 12 1021.5R
FRYING PAN 41013 0050            58 72   50/ 10/ 14 1020.7F
WVE H/P(F/S)=  4/12 SWL H/P/D(F/S/D)=  3/110/12

SUNST NRSH 41024 0008            56 62  140/  2/  6 1021.1F
CAPRS NRSH 41029 0008            55 63   90/ 10/ 14 1020.9R
EDISTO     41004 0050            63 76   60/  6/ 12 1020.2R
WVE H/P(F/S)=  4/ 7 SWL H/P/D(F/S/D)=  5/ 70/ 7



..........OFFSHORE BUOYS BEYOND 100 NM OFFSHORE...........
.....IN A TRIANGLE---HAT TO BERMUDA TO BAHAMAS TO HAT.....


STATION/POSITION TIME  SKY/WX   TEMP    WIND        PRES    VSBY
                                AIR SEA DIR/SP/G
                 (UTC)          (F)     (DEG/KT/KT) (MB)    (MI)
150E HAT   41001 NOT AVBL
W BERMUDA  41048 0050            69 77   20/ 16/ 19 1017.5R
WVE H/P(F/S)=  8/ 8 SWL H/P/D(F/S/D)=  5/ 20/ 9

ATLANTIC S 41049 2350            76 80   60/ 14/ 17 1010.8
WVE H/P(F/S)=  6/11 SWL H/P/D(F/S/D)=  5/ 10/11

E BAHAMAS  41046 0050            78 82   70/ 21/ 25 1009.4F
WVE H/P(F/S)=  7/12 SWL H/P/D(F/S/D)=  3/ 20/12

NE BAHAMAS 41047 0050            74 80   50/ 16/ 19 1014.5F
WVE H/P(F/S)=  7/13 SWL H/P/D(F/S/D)=  5/ 30/13

120E CANVRL41010 NOT AVBL

END




USA.gov is the U.S. government's official web portal to all federal, state and local government web resources and services.